Satellite: MET-3/5
Catalog number: 21655
Epoch time:      08219.94063836
Element set:    0502
Inclination:      082.5505 deg
RA of node:       068.5242 deg
Eccentricity:    0.0012124
Arg of perigee:   247.4587 deg
Mean anomaly:     112.5253 deg
Mean motion:   13.17016333 rev/day
Decay rate:        5.1e-07 rev/day^2
Epoch rev:           81626
Checksum:              279

Satellite: MET-2/21
Catalog number: 22782
Epoch time:      08219.68479757
Element set:    0218
Inclination:      082.5436 deg
RA of node:       071.5167 deg
Eccentricity:    0.0023192
Arg of perigee:   145.2466 deg
Mean anomaly:     215.0210 deg
Mean motion:   13.83629981 rev/day
Decay rate:       -1.9e-07 rev/day^2
Epoch rev:           75411
Checksum:              311

Satellite: OKEAN-4
Catalog number: 23317
Epoch time:      08219.74160542
Element set:    0661
Inclination:      082.5377 deg
RA of node:       267.8988 deg
Eccentricity:    0.0021178
Arg of perigee:   324.8070 deg
Mean anomaly:     035.1744 deg
Mean motion:   14.82627077 rev/day
Decay rate:       1.47e-06 rev/day^2
Epoch rev:           74577
Checksum:              325

Satellite: NOAA-14
Catalog number: 23455
Epoch time:      08219.79707979
Element set:    0256
Inclination:      098.9433 deg
RA of node:       292.0631 deg
Eccentricity:    0.0009375
Arg of perigee:   007.3270 deg
Mean anomaly:     352.8022 deg
Mean motion:   14.13745623 rev/day
Decay rate:      -1.86e-06 rev/day^2
Epoch rev:           70150
Checksum:              311

Satellite: SICH-1
Catalog number: 23657
Epoch time:      08219.80027198
Element set:    0459
Inclination:      082.5250 deg
RA of node:       048.8299 deg
Eccentricity:    0.0022898
Arg of perigee:   317.0923 deg
Mean anomaly:     042.8457 deg
Mean motion:   14.81595695 rev/day
Decay rate:       1.07e-06 rev/day^2
Epoch rev:           69771
Checksum:              344

Satellite: NOAA-15
Catalog number: 25338
Epoch time:      08219.57151617
Element set:    0574
Inclination:      098.5567 deg
RA of node:       210.1559 deg
Eccentricity:    0.0009476
Arg of perigee:   253.9395 deg
Mean anomaly:     106.0732 deg
Mean motion:   14.24719474 rev/day
Decay rate:       1.71e-06 rev/day^2
Epoch rev:           53197
Checksum:              327

Satellite: RESURS
Catalog number: 25394
Epoch time:      08219.97479948
Element set:    0998
Inclination:      098.3833 deg
RA of node:       261.6113 deg
Eccentricity:    0.0002500
Arg of perigee:   055.4955 deg
Mean anomaly:     304.6460 deg
Mean motion:   14.24166622 rev/day
Decay rate:        4.0e-08 rev/day^2
Epoch rev:           52367
Checksum:              315

Satellite: FENGYUN1
Catalog number: 25730
Epoch time:      08219.94819991
Element set:    0559
Inclination:      098.7232 deg
RA of node:       194.0143 deg
Eccentricity:    0.0022181
Arg of perigee:   028.1256 deg
Mean anomaly:     332.1107 deg
Mean motion:   14.07742693 rev/day
Decay rate:       1.75e-06 rev/day^2
Epoch rev:           47610
Checksum:              298

Satellite: OKEAN-0
Catalog number: 25860
Epoch time:      08219.50246712
Element set:    0439
Inclination:      097.7530 deg
RA of node:       207.8310 deg
Eccentricity:    0.0001797
Arg of perigee:   084.2277 deg
Mean anomaly:     275.9131 deg
Mean motion:   14.73531046 rev/day
Decay rate:       -1.0e-08 rev/day^2
Epoch rev:           48680
Checksum:              292

Satellite: NOAA-16
Catalog number: 26536
Epoch time:      08219.71335213
Element set:    0046
Inclination:      099.1606 deg
RA of node:       210.0049 deg
Eccentricity:    0.0011534
Arg of perigee:   084.0934 deg
Mean anomaly:     276.1514 deg
Mean motion:   14.12491585 rev/day
Decay rate:      -2.43e-06 rev/day^2
Epoch rev:           40590
Checksum:              277

Satellite: NOAA-17
Catalog number: 27453
Epoch time:      08219.92441354
Element set:    0042
Inclination:      098.5305 deg
RA of node:       283.0737 deg
Eccentricity:    0.0011096
Arg of perigee:   324.8115 deg
Mean anomaly:     035.2315 deg
Mean motion:   14.23993519 rev/day
Decay rate:       1.71e-06 rev/day^2
Epoch rev:           31802
Checksum:              286

Satellite: NOAA-18
Catalog number: 28654
Epoch time:      08219.81886197
Element set:    0533
Inclination:      098.8673 deg
RA of node:       160.1300 deg
Eccentricity:    0.0014561
Arg of perigee:   167.0102 deg
Mean anomaly:     193.1448 deg
Mean motion:   14.11184142 rev/day
Decay rate:       3.87e-06 rev/day^2
Epoch rev:           16561
Checksum:              303

/EX
SB KEPS @ AMSAT  $ORB08220.M
Orbital Elements  08220.MISC

HR AMSAT ORBITAL ELEMENTS FOR MANNED AND MISCELLANEOUS SATELLITES
FROM WA5QGD FORT WORTH,TX August 7, 2008
Send Subscribe/unsubscribe to KEPS at 
http://www.amsat.org/mailman/listinfo/keps
BID: ORB08220.M
TO ALL RADIO AMATEURS BT

Satellite: HUBBLE
Catalog number: 20580
Epoch time:      08219.76471762
Element set:     194
Inclination:      028.4697 deg
RA of node:       353.3330 deg
Eccentricity:    0.0003866
Arg of perigee:   198.8395 deg
Mean anomaly:     161.2052 deg
Mean motion:   15.00397323 rev/day
Decay rate:       2.67e-06 rev/day^2
Epoch rev:           80258
Checksum:              308

